White Plains, CT

4:52 AM EDT on September 23, 2019 (GMT -0400)
Westchester County

Weather History for KHPN - August, 2019

Change the Weather History Date:

Saturday, August 24, 2019

  Actual Average Record
Temperature  
Mean Temperature 65 °F -  
Max Temperature 75 °F 77 °F 91 °F (1998)
Min Temperature 57 °F 61 °F 51 °F (1987)
Growing Degree Days 15 (Base 50)    
Moisture  
Dew Point 53 °F    
Average Humidity 65    
Maximum Humidity 87    
Minimum Humidity 41    
Precipitation  
Precipitation 0.00 in - - ()
Sea Level Pressure  
Sea Level Pressure 30.16 in    
Wind  
Wind Speed 7 mph ()    
Max Wind Speed 14 mph    
Max Gust Speed -    
Visibility 10.0 miles    
Events      
Averages and records for this station are not official NWS values.
T = Trace of Precipitation, MM = Missing Value Source: Averaged Metar Reports

Daily Weather History Graph

Daily Weather History Graph

Search for Another Location

Airport or City:

Astronomy

Aug. 24, 2019 Rise Set
Actual Time 6:13 AM EDT 7:40 PM EDT
Civil Twilight 5:44 AM EDT 8:09 PM EDT
Nautical Twilight 5:09 AM EDT 8:43 PM EDT
Astronomical Twilight 4:32 AM EDT 9:20 PM EDT
Moon 12:03 AM EDT (8/24) 2:54 PM EDT (8/24)
Length of Visible Light 14h 24m
Length of Day
13h 27m
Last Quarter, 39% of the Moon is Illuminated
Aug 24
Last Quarter
Aug 30
New
Sep 5
First Quarter
Sep 14
Full
Sep 21
Last Quarter

Hourly Weather History & Observations

Time (EDT) Temp. Dew Point Humidity Pressure Visibility Wind Dir Wind Speed Gust Speed Precip Events Conditions
12:56 AM 62.1 °F 55.0 °F 78% 30.07 in 10.0 mi NNW 11.5 mph - N/A   Clear
1:56 AM 61.0 °F 55.0 °F 81% 30.06 in 10.0 mi NNW 10.4 mph - N/A   Clear
2:56 AM 60.1 °F 55.0 °F 83% 30.07 in 10.0 mi North 10.4 mph - N/A   Clear
3:56 AM 60.1 °F 55.0 °F 83% 30.09 in 10.0 mi NNW 10.4 mph - N/A   Clear
4:56 AM 59.0 °F 55.0 °F 87% 30.10 in 10.0 mi NNW 8.1 mph - N/A   Clear
5:56 AM 57.9 °F 54.0 °F 87% 30.12 in 10.0 mi NW 5.8 mph - N/A   Mostly Cloudy
6:56 AM 57.9 °F 54.0 °F 87% 30.15 in 10.0 mi WNW 5.8 mph - N/A   Clear
7:56 AM 62.1 °F 53.1 °F 72% 30.16 in 10.0 mi NNW 8.1 mph - N/A   Clear
8:56 AM 66.0 °F 51.1 °F 59% 30.17 in 10.0 mi NNW 12.7 mph - N/A   Clear
9:56 AM 68.0 °F 52.0 °F 56% 30.17 in 10.0 mi NNW 8.1 mph - N/A   Clear
10:56 AM 69.1 °F 48.9 °F 49% 30.17 in 10.0 mi NNW 13.8 mph - N/A   Partly Cloudy
11:56 AM 71.1 °F 48.9 °F 45% 30.17 in 10.0 mi NNW 11.5 mph - N/A   Partly Cloudy
12:56 PM 72.0 °F 48.9 °F 44% 30.16 in 10.0 mi North 9.2 mph - N/A   Scattered Clouds
1:56 PM 72.0 °F 48.0 °F 43% 30.17 in 10.0 mi NNE 9.2 mph - N/A   Scattered Clouds
2:56 PM 73.0 °F 48.9 °F 42% 30.16 in 10.0 mi NNW 10.4 mph - N/A   Mostly Cloudy
3:56 PM 73.9 °F 51.1 °F 45% 30.15 in 10.0 mi NNW 13.8 mph - N/A   Scattered Clouds
4:56 PM 73.9 °F 48.9 °F 41% 30.16 in 10.0 mi WNW 4.6 mph - N/A   Scattered Clouds
5:56 PM 73.0 °F 50.0 °F 44% 30.17 in 10.0 mi Variable 3.5 mph - N/A   Scattered Clouds
6:56 PM 71.1 °F 52.0 °F 51% 30.18 in 10.0 mi ESE 3.5 mph - N/A   Scattered Clouds
7:56 PM 66.0 °F 55.0 °F 68% 30.19 in 10.0 mi Calm Calm - N/A   Mostly Cloudy
8:56 PM 64.0 °F 55.0 °F 73% 30.21 in 10.0 mi Calm Calm - N/A   Mostly Cloudy
9:56 PM 62.1 °F 55.9 °F 80% 30.23 in 10.0 mi Calm Calm - N/A   Partly Cloudy
10:56 PM 61.0 °F 57.0 °F 87% 30.25 in 10.0 mi Calm Calm - N/A   Scattered Clouds
11:56 PM 60.1 °F 55.9 °F 86% 30.25 in 10.0 mi Calm Calm - N/A   Scattered Clouds